Time,TemperatureF,DewpointF,PressureIn,WindDirection,WindDirectionDegrees,WindSpeedMPH,WindSpeedGustMPH,Humidity,HourlyPrecipIn,Conditions,Clouds,dailyrainin,SoftwareType,DateUTC
2013-06-19 00:07:00,52.4,43.0,30.08,SSW,212,3.0,5.0,70,0.00,,,0.00,weatherlink.com 1.10,2013-06-19 04:07:00,
2013-06-19 00:22:00,51.1,43.0,30.08,SSW,210,1.0,5.0,73,0.00,,,0.00,weatherlink.com 1.10,2013-06-19 04:22:00,
2013-06-19 00:37:00,48.9,43.0,30.08,SSW,206,2.0,3.0,79,0.00,,,0.00,weatherlink.com 1.10,2013-06-19 04:37:00,
2013-06-19 00:53:00,47.5,42.0,30.08,SSW,207,1.0,4.0,82,0.00,,,0.00,weatherlink.com 1.10,2013-06-19 04:53:00,
2013-06-19 01:08:00,46.4,42.0,30.09,SSW,196,0.0,3.0,85,0.00,,,0.00,weatherlink.com 1.10,2013-06-19 05:08:00,
2013-06-19 01:23:00,45.9,42.0,30.09,South,171,0.0,3.0,86,0.00,,,0.00,weatherlink.com 1.10,2013-06-19 05:23:00,
2013-06-19 01:38:00,45.6,42.0,30.09,SSW,202,4.0,4.0,87,0.00,,,0.00,weatherlink.com 1.10,2013-06-19 05:38:00,
2013-06-19 01:53:00,45.1,42.0,30.09,SSW,192,2.0,4.0,88,0.00,,,0.00,weatherlink.com 1.10,2013-06-19 05:53:00,
2013-06-19 02:08:00,44.5,42.0,30.09,SSW,192,2.0,4.0,89,0.00,,,0.00,weatherlink.com 1.10,2013-06-19 06:08:00,
2013-06-19 02:23:00,44.4,42.0,30.09,SSW,211,4.0,5.0,90,0.00,,,0.00,weatherlink.com 1.10,2013-06-19 06:23:00,
2013-06-19 02:38:00,43.9,41.0,30.10,South,181,2.0,4.0,90,0.00,,,0.00,weatherlink.com 1.10,2013-06-19 06:38:00,
2013-06-19 02:53:00,43.8,41.0,30.10,South,171,0.0,5.0,91,0.00,,,0.00,weatherlink.com 1.10,2013-06-19 06:53:00,
2013-06-19 03:08:00,43.5,41.0,30.10,South,178,2.0,4.0,91,0.00,,,0.00,weatherlink.com 1.10,2013-06-19 07:08:00,
2013-06-19 03:23:00,43.7,42.0,30.10,SSW,193,2.0,5.0,92,0.00,,,0.00,weatherlink.com 1.10,2013-06-19 07:23:00,
2013-06-19 03:38:00,43.1,41.0,30.10,SSW,208,3.0,5.0,93,0.00,,,0.00,weatherlink.com 1.10,2013-06-19 07:38:00,
2013-06-19 03:53:00,42.6,41.0,30.10,SSW,207,0.0,3.0,93,0.00,,,0.00,weatherlink.com 1.10,2013-06-19 07:53:00,
2013-06-19 04:08:00,42.5,41.0,30.10,South,182,0.0,5.0,93,0.00,,,0.00,weatherlink.com 1.10,2013-06-19 08:08:00,
2013-06-19 04:23:00,42.6,41.0,30.11,South,175,2.0,3.0,93,0.00,,,0.00,weatherlink.com 1.10,2013-06-19 08:23:00,
2013-06-19 04:38:00,42.2,41.0,30.11,South,169,0.0,3.0,94,0.00,,,0.00,weatherlink.com 1.10,2013-06-19 08:38:00,
2013-06-19 04:53:00,42.4,41.0,30.12,South,179,2.0,2.0,94,0.00,,,0.00,weatherlink.com 1.10,2013-06-19 08:53:00,
2013-06-19 05:08:00,42.5,41.0,30.12,South,175,1.0,2.0,94,0.00,,,0.00,weatherlink.com 1.10,2013-06-19 09:08:00,
2013-06-19 05:23:00,42.0,40.0,30.13,South,176,1.0,2.0,94,0.00,,,0.00,weatherlink.com 1.10,2013-06-19 09:23:00,
2013-06-19 05:38:00,41.9,40.0,30.14,South,178,1.0,3.0,94,0.00,,,0.00,weatherlink.com 1.10,2013-06-19 09:38:00,
2013-06-19 05:53:00,41.8,40.0,30.14,South,176,0.0,1.0,94,0.00,,,0.00,weatherlink.com 1.10,2013-06-19 09:53:00,
2013-06-19 06:08:00,41.8,40.0,30.14,South,173,1.0,1.0,94,0.00,,,0.00,weatherlink.com 1.10,2013-06-19 10:08:00,
2013-06-19 06:23:00,42.5,41.0,30.14,South,173,2.0,3.0,95,0.00,,,0.00,weatherlink.com 1.10,2013-06-19 10:23:00,
2013-06-19 06:38:00,44.0,43.0,30.15,South,173,0.0,2.0,95,0.00,,,0.00,weatherlink.com 1.10,2013-06-19 10:38:00,
2013-06-19 06:53:00,45.3,44.0,30.16,South,173,0.0,2.0,94,0.00,,,0.00,weatherlink.com 1.10,2013-06-19 10:53:00,
2013-06-19 07:08:00,47.2,46.0,30.16,South,173,0.0,2.0,94,0.00,,,0.00,weatherlink.com 1.10,2013-06-19 11:08:00,
2013-06-19 07:24:00,50.1,49.0,30.17,South,173,0.0,1.0,94,0.00,,,0.00,weatherlink.com 1.10,2013-06-19 11:24:00,
2013-06-19 07:39:00,52.8,50.0,30.17,SSE,159,2.0,3.0,91,0.00,,,0.00,weatherlink.com 1.10,2013-06-19 11:39:00,
2013-06-19 07:54:00,54.8,51.0,30.17,SE,127,2.0,3.0,88,0.00,,,0.00,weatherlink.com 1.10,2013-06-19 11:54:00,
2013-06-19 08:09:00,55.8,52.0,30.17,East,99,3.0,3.0,86,0.00,,,0.00,weatherlink.com 1.10,2013-06-19 12:09:00,
2013-06-19 08:24:00,56.4,52.0,30.17,East,81,5.0,6.0,85,0.00,,,0.00,weatherlink.com 1.10,2013-06-19 12:24:00,
2013-06-19 08:39:00,57.9,51.0,30.17,SE,125,2.0,7.0,78,0.00,,,0.00,weatherlink.com 1.10,2013-06-19 12:39:00,
2013-06-19 08:54:00,58.7,51.0,30.17,ESE,121,7.0,7.0,76,0.00,,,0.00,weatherlink.com 1.10,2013-06-19 12:54:00,
2013-06-19 09:09:00,60.0,52.0,30.17,SSW,202,1.0,5.0,74,0.00,,,0.00,weatherlink.com 1.10,2013-06-19 13:09:00,
2013-06-19 09:24:00,60.9,50.0,30.17,WSW,244,8.0,8.0,67,0.00,,,0.00,weatherlink.com 1.10,2013-06-19 13:24:00,
2013-06-19 09:39:00,61.8,48.0,30.17,West,271,3.0,9.0,61,0.00,,,0.00,weatherlink.com 1.10,2013-06-19 13:39:00,
2013-06-19 09:54:00,60.4,51.0,30.17,NNW,338,6.0,9.0,72,0.00,,,0.00,weatherlink.com 1.10,2013-06-19 13:54:00,
2013-06-19 10:09:00,59.3,51.0,30.18,NW,319,3.0,6.0,73,0.00,,,0.00,weatherlink.com 1.10,2013-06-19 14:09:00,
2013-06-19 10:24:00,59.9,51.0,30.17,North,355,4.0,6.0,72,0.00,,,0.00,weatherlink.com 1.10,2013-06-19 14:24:00,
2013-06-19 10:39:00,60.7,52.0,30.17,NNW,337,3.0,4.0,73,0.00,,,0.00,weatherlink.com 1.10,2013-06-19 14:39:00,
2013-06-19 10:54:00,61.5,53.0,30.17,North,5,5.0,7.0,73,0.00,,,0.00,weatherlink.com 1.10,2013-06-19 14:54:00,
2013-06-19 11:09:00,62.1,52.0,30.16,North,355,5.0,7.0,70,0.00,,,0.00,weatherlink.com 1.10,2013-06-19 15:09:00,
2013-06-19 11:24:00,62.3,50.0,30.16,NNE,12,5.0,9.0,64,0.00,,,0.00,weatherlink.com 1.10,2013-06-19 15:24:00,
2013-06-19 11:39:00,62.5,53.0,30.16,NNE,24,6.0,8.0,70,0.00,,,0.00,weatherlink.com 1.10,2013-06-19 15:39:00,
2013-06-19 11:54:00,64.3,53.0,30.16,North,5,4.0,7.0,67,0.00,,,0.00,weatherlink.com 1.10,2013-06-19 15:54:00,
2013-06-19 12:09:00,63.8,53.0,30.16,North,5,3.0,6.0,67,0.00,,,0.00,weatherlink.com 1.10,2013-06-19 16:09:00,
2013-06-19 12:24:00,63.6,52.0,30.15,NE,49,8.0,8.0,66,0.00,,,0.00,weatherlink.com 1.10,2013-06-19 16:24:00,
2013-06-19 12:39:00,63.9,49.0,30.15,ESE,103,0.0,6.0,58,0.00,,,0.00,weatherlink.com 1.10,2013-06-19 16:39:00,
2013-06-19 12:54:00,64.3,50.0,30.15,NW,317,9.0,10.0,61,0.00,,,0.00,weatherlink.com 1.10,2013-06-19 16:54:00,
2013-06-19 13:09:00,64.6,47.0,30.14,NNE,13,2.0,7.0,54,0.00,,,0.00,weatherlink.com 1.10,2013-06-19 17:09:00,
2013-06-19 13:24:00,65.4,49.0,30.14,North,5,3.0,9.0,56,0.00,,,0.00,weatherlink.com 1.10,2013-06-19 17:24:00,
2013-06-19 13:39:00,65.8,49.0,30.13,NNE,14,6.0,11.0,54,0.00,,,0.00,weatherlink.com 1.10,2013-06-19 17:39:00,
2013-06-19 13:54:00,66.8,48.0,30.13,WSW,254,3.0,8.0,52,0.00,,,0.00,weatherlink.com 1.10,2013-06-19 17:54:00,
2013-06-19 14:09:00,67.4,43.0,30.13,SW,235,6.0,13.0,41,0.00,,,0.00,weatherlink.com 1.10,2013-06-19 18:09:00,
2013-06-19 14:24:00,67.3,43.0,30.12,SW,233,4.0,11.0,41,0.00,,,0.00,weatherlink.com 1.10,2013-06-19 18:24:00,
2013-06-19 14:39:00,67.5,42.0,30.12,South,180,2.0,10.0,40,0.00,,,0.00,weatherlink.com 1.10,2013-06-19 18:39:00,
2013-06-19 14:54:00,68.0,41.0,30.12,West,262,3.0,11.0,38,0.00,,,0.00,weatherlink.com 1.10,2013-06-19 18:54:00,
2013-06-19 15:09:00,68.1,41.0,30.12,SSW,209,7.0,13.0,38,0.00,,,0.00,weatherlink.com 1.10,2013-06-19 19:09:00,
2013-06-19 15:24:00,68.4,42.0,30.11,WSW,241,3.0,10.0,38,0.00,,,0.00,weatherlink.com 1.10,2013-06-19 19:24:00,
2013-06-19 15:39:00,69.2,42.0,30.12,SW,227,4.0,10.0,37,0.00,,,0.00,weatherlink.com 1.10,2013-06-19 19:39:00,
2013-06-19 15:54:00,69.0,47.0,30.12,NNE,32,4.0,8.0,45,0.00,,,0.00,weatherlink.com 1.10,2013-06-19 19:54:00,
2013-06-19 16:09:00,68.3,42.0,30.11,West,270,4.0,14.0,39,0.00,,,0.00,weatherlink.com 1.10,2013-06-19 20:09:00,
2013-06-19 16:24:00,69.1,42.0,30.11,West,262,7.0,11.0,37,0.00,,,0.00,weatherlink.com 1.10,2013-06-19 20:24:00,
2013-06-19 16:39:00,68.9,45.0,30.10,ESE,107,4.0,11.0,42,0.00,,,0.00,weatherlink.com 1.10,2013-06-19 20:39:00,
2013-06-19 16:54:00,67.2,47.0,30.10,SSE,150,4.0,14.0,48,0.00,,,0.00,weatherlink.com 1.10,2013-06-19 20:54:00,
2013-06-19 17:09:00,65.9,46.0,30.10,South,179,7.0,12.0,49,0.00,,,0.00,weatherlink.com 1.10,2013-06-19 21:09:00,
2013-06-19 17:24:00,65.0,45.0,30.10,SSE,152,6.0,10.0,48,0.00,,,0.00,weatherlink.com 1.10,2013-06-19 21:24:00,
2013-06-19 17:39:00,64.1,44.0,30.10,SSW,192,7.0,12.0,49,0.00,,,0.00,weatherlink.com 1.10,2013-06-19 21:39:00,
2013-06-19 17:54:00,63.6,44.0,30.10,SSE,167,3.0,10.0,50,0.00,,,0.00,weatherlink.com 1.10,2013-06-19 21:54:00,
2013-06-19 18:09:00,63.0,44.0,30.10,SE,138,7.0,14.0,51,0.00,,,0.00,weatherlink.com 1.10,2013-06-19 22:09:00,
2013-06-19 18:24:00,62.1,44.0,30.10,South,169,3.0,15.0,51,0.00,,,0.00,weatherlink.com 1.10,2013-06-19 22:24:00,
2013-06-19 18:39:00,62.4,44.0,30.10,South,170,7.0,15.0,52,0.00,,,0.00,weatherlink.com 1.10,2013-06-19 22:39:00,
2013-06-19 18:54:00,63.1,45.0,30.10,South,181,7.0,15.0,52,0.00,,,0.00,weatherlink.com 1.10,2013-06-19 22:54:00,
2013-06-19 19:09:00,63.3,44.0,30.10,South,174,4.0,15.0,49,0.00,,,0.00,weatherlink.com 1.10,2013-06-19 23:09:00,
2013-06-19 19:24:00,63.0,43.0,30.10,South,179,4.0,14.0,49,0.00,,,0.00,weatherlink.com 1.10,2013-06-19 23:24:00,
2013-06-19 19:39:00,62.8,43.0,30.11,SSW,193,9.0,16.0,49,0.00,,,0.00,weatherlink.com 1.10,2013-06-19 23:39:00,
2013-06-19 19:54:00,62.6,44.0,30.11,SSE,158,5.0,14.0,50,0.00,,,0.00,weatherlink.com 1.10,2013-06-19 23:54:00,
2013-06-19 20:09:00,61.9,43.0,30.10,SSE,167,5.0,11.0,50,0.00,,,0.00,weatherlink.com 1.10,2013-06-20 00:09:00,
2013-06-19 20:25:00,61.2,43.0,30.10,South,172,3.0,11.0,52,0.00,,,0.00,weatherlink.com 1.10,2013-06-20 00:25:00,
2013-06-19 20:40:00,60.6,43.0,30.09,SSE,149,4.0,12.0,53,0.00,,,0.00,weatherlink.com 1.10,2013-06-20 00:40:00,
2013-06-19 20:55:00,60.2,43.0,30.09,SSE,166,2.0,11.0,53,0.00,,,0.00,weatherlink.com 1.10,2013-06-20 00:55:00,
2013-06-19 21:10:00,59.7,42.0,30.09,South,178,4.0,13.0,53,0.00,,,0.00,weatherlink.com 1.10,2013-06-20 01:10:00,
2013-06-19 21:25:00,59.0,42.0,30.09,SSE,163,5.0,15.0,53,0.00,,,0.00,weatherlink.com 1.10,2013-06-20 01:25:00,
2013-06-19 21:40:00,58.7,42.0,30.10,SSW,198,7.0,10.0,54,0.00,,,0.00,weatherlink.com 1.10,2013-06-20 01:40:00,
2013-06-19 21:55:00,58.4,42.0,30.10,South,183,3.0,10.0,54,0.00,,,0.00,weatherlink.com 1.10,2013-06-20 01:55:00,
2013-06-19 22:10:00,58.1,41.0,30.10,South,169,2.0,9.0,54,0.00,,,0.00,weatherlink.com 1.10,2013-06-20 02:10:00,
2013-06-19 22:25:00,57.8,42.0,30.10,SSE,167,5.0,13.0,55,0.00,,,0.00,weatherlink.com 1.10,2013-06-20 02:25:00,
2013-06-19 22:40:00,57.5,42.0,30.10,SSE,155,4.0,11.0,56,0.00,,,0.00,weatherlink.com 1.10,2013-06-20 02:40:00,
2013-06-19 22:55:00,57.2,41.0,30.10,SSE,149,5.0,11.0,56,0.00,,,0.00,weatherlink.com 1.10,2013-06-20 02:55:00,
2013-06-19 23:10:00,57.1,41.0,30.10,South,171,6.0,9.0,56,0.00,,,0.00,weatherlink.com 1.10,2013-06-20 03:10:00,
2013-06-19 23:25:00,57.2,41.0,30.11,South,171,3.0,13.0,56,0.00,,,0.00,weatherlink.com 1.10,2013-06-20 03:25:00,
2013-06-19 23:40:00,57.1,42.0,30.10,SSE,163,2.0,11.0,57,0.00,,,0.00,weatherlink.com 1.10,2013-06-20 03:40:00,
2013-06-19 23:55:00,56.8,41.0,30.11,South,177,4.0,8.0,57,0.00,,,0.00,weatherlink.com 1.10,2013-06-20 03:55:00,